User: anonymous   Login
Location: Natural Bridges National Monument
(37.6093°N, 109.9767°W)
Time: 16:48:15
(UTC-06:00)
Language:

Cosmos 1727 Rocket - Orbit

View from above orbital plane
View from above orbital plane
View from above satellite
View from above satellite

Ground track
Ground track

The orbit data is extracted from the following two-line orbital elements,

1 16511U 86008B   17178.58959105 +.00000083 +00000-0 +70595-4 0  9993
2 16511 082.9436 212.2027 0022753 252.4959 267.4814 13.75811177577449
Epoch (UTC): 27 June 2017 14:09:00
Eccentricity: 0.0022753
inclination: 82.9436°
perigee height: 962 km
apogee height: 995 km
right ascension of ascending node: 212.2027°
argument of perigee: 252.4959°
revolutions per day: 13.75811177
mean anomaly at epoch: 267.4814°
orbit number at epoch: 57744

The dashed part of the orbit path shows where the satellite is in the earth's shadow,  

DLR